When you browse on this site, cookies collect data to enhance your experience and personalize the content and advertising you see.
Visit our Privacy Policy to learn more. By continuing to use the site, you agree to this use of cookies and data.
  • In United Kingdom
  • List of Countries
  • For 7 days
  • Water Temperature
  • Satellite Maps
  • Weather Map
  • Weather Widgets
  • user-avatar
    Login

    Hourly Weather Kalat

    Today, 21 May, Tuesday

    Time Temperature Precipitation Wind Pressure Humidity
    00:00 0°C° 0 mm 1 mps 475 mmHg 31%
    01:00 -1°C° 0 mm 1 mps 475 mmHg 33%
    02:00 -1°C° 0 mm 1 mps 475 mmHg 34%
    03:00 -1°C° 0 mm 1 mps 475 mmHg 36%
    04:00 -1°C° 0 mm 1 mps 474 mmHg 37%
    05:00 -1°C° 0 mm 1 mps 474 mmHg 39%
    06:00 0°C° 0 mm 1 mps 475 mmHg 37%
    07:00 +2°C° 0 mm 1 mps 476 mmHg 36%
    08:00 +3°C° 0 mm 1 mps 478 mmHg 35%
    09:00 +3°C° 0 mm 0 mps 478 mmHg 32%
    10:00 +4°C° 0 mm 0 mps 479 mmHg 30%
    11:00 +5°C° 0 mm 0 mps 479 mmHg 28%
    12:00 +6°C° 0 mm 0 mps 479 mmHg 29%
    13:00 +6°C° 0 mm 0 mps 480 mmHg 31%
    14:00 +6°C° 0 mm 0 mps 480 mmHg 32%
    15:00 +6°C° 0 mm 0 mps 479 mmHg 33%
    16:00 +7°C° 0 mm 1 mps 479 mmHg 34%
    17:00 +7°C° 0 mm 1 mps 479 mmHg 34%
    18:00 +6°C° 0 mm 1 mps 478 mmHg 37%
    19:00 +4°C° 0 mm 1 mps 477 mmHg 40%
    20:00 +3°C° 0 mm 1 mps 477 mmHg 42%
    21:00 +3°C° 0 mm 1 mps 476 mmHg 42%
    22:00 +2°C° 0 mm 1 mps 476 mmHg 42%
    23:00 +2°C° 0 mm 1 mps 476 mmHg 42%

    Tomorrow, 22 May, Wednesday

    Time Temperature Precipitation Wind Pressure Humidity
    00:00 +2°C° 0 mm 1 mps 476 mmHg 43%
    01:00 +2°C° 0 mm 1 mps 476 mmHg 44%
    02:00 +1°C° 0 mm 1 mps 475 mmHg 44%
    03:00 +1°C° 0 mm 1 mps 475 mmHg 46%
    04:00 +1°C° 0 mm 1 mps 475 mmHg 48%
    05:00 +1°C° 0 mm 1 mps 475 mmHg 49%
    06:00 +2°C° 0 mm 1 mps 476 mmHg 48%
    07:00 +3°C° 0 mm 1 mps 477 mmHg 48%
    08:00 +3°C° 0 mm 0 mps 478 mmHg 47%
    09:00 +4°C° 0 mm 0 mps 478 mmHg 48%
    10:00 +6°C° 0 mm 1 mps 478 mmHg 48%
    11:00 +7°C° 0 mm 1 mps 479 mmHg 49%
    12:00 +7°C° 0.3 mm 1 mps 479 mmHg 51%
    13:00 +7°C° 0.3 mm 1 mps 478 mmHg 54%
    14:00 +7°C° 0.3 mm 1 mps 478 mmHg 57%
    15:00 +6°C° 0.9 mm 1 mps 477 mmHg 63%
    16:00 +4°C° 0.9 mm 2 mps 476 mmHg 69%
    17:00 +3°C° 0.9 mm 2 mps 475 mmHg 75%
    18:00 +3°C° 0.7 mm 2 mps 475 mmHg 77%
    19:00 +2°C° 0.7 mm 2 mps 475 mmHg 78%
    20:00 +2°C° 0.7 mm 2 mps 475 mmHg 80%
    21:00 +3°C° 0.6 mm 1 mps 475 mmHg 81%
    22:00 +3°C° 0.6 mm 1 mps 475 mmHg 82%
    23:00 +3°C° 0.6 mm 1 mps 475 mmHg 83%

    Day after tomorrow, 23 May, Thursday

    Time Temperature Precipitation Wind Pressure Humidity
    00:00 +3°C° 0.7 mm 1 mps 475 mmHg 84%
    01:00 +2°C° 0.7 mm 1 mps 475 mmHg 85%
    02:00 +2°C° 0.7 mm 1 mps 475 mmHg 85%
    03:00 +2°C° 0.3 mm 1 mps 475 mmHg 85%
    04:00 +2°C° 0.3 mm 1 mps 475 mmHg 85%
    05:00 +2°C° 0.3 mm 1 mps 475 mmHg 85%
    06:00 +3°C° 0.2 mm 1 mps 475 mmHg 83%
    07:00 +3°C° 0.2 mm 1 mps 476 mmHg 81%
    08:00 +4°C° 0.2 mm 1 mps 476 mmHg 79%
    09:00 +4°C° 0.3 mm 2 mps 477 mmHg 78%
    10:00 +4°C° 0.3 mm 2 mps 477 mmHg 77%
    11:00 +5°C° 0.3 mm 2 mps 478 mmHg 76%
    12:00 +5°C° 0.6 mm 2 mps 477 mmHg 76%
    13:00 +5°C° 0.6 mm 2 mps 477 mmHg 76%
    14:00 +4°C° 0.6 mm 3 mps 477 mmHg 76%
    15:00 +5°C° 0.9 mm 2 mps 477 mmHg 77%
    16:00 +5°C° 0.9 mm 2 mps 477 mmHg 78%
    17:00 +5°C° 0.9 mm 2 mps 477 mmHg 78%
    18:00 +5°C° 0.4 mm 1 mps 477 mmHg 78%
    19:00 +5°C° 0.4 mm 1 mps 476 mmHg 77%
    20:00 +3°C° 0.4 mm 0 mps 476 mmHg 77%
    21:00 +4°C° 0.1 mm 1 mps 476 mmHg 77%
    22:00 +4°C° 0.1 mm 1 mps 476 mmHg 78%
    23:00 +2°C° 0.1 mm 2 mps 476 mmHg 78%

    24 May, Friday

    Time Temperature Precipitation Wind Pressure Humidity
    00:00 +3°C° 0 mm 1 mps 476 mmHg 78%
    01:00 +3°C° 0 mm 1 mps 475 mmHg 78%
    02:00 +2°C° 0 mm 1 mps 475 mmHg 78%
    03:00 +1°C° 0 mm 2 mps 474 mmHg 78%
    04:00 +1°C° 0 mm 2 mps 474 mmHg 79%
    05:00 -1°C° 0 mm 2 mps 474 mmHg 79%
    06:00 +1°C° 0.1 mm 2 mps 475 mmHg 77%
    07:00 +2°C° 0.1 mm 2 mps 476 mmHg 76%
    08:00 +3°C° 0.1 mm 2 mps 477 mmHg 75%
    09:00 +4°C° 0.3 mm 2 mps 477 mmHg 74%
    10:00 +4°C° 0.3 mm 2 mps 477 mmHg 73%
    11:00 +5°C° 0.3 mm 1 mps 477 mmHg 72%
    12:00 +5°C° 0.6 mm 1 mps 477 mmHg 72%
    13:00 +5°C° 0.6 mm 1 mps 477 mmHg 72%
    14:00 +6°C° 0.6 mm 1 mps 477 mmHg 73%
    15:00 +4°C° 1.3 mm 2 mps 477 mmHg 76%
    16:00 +4°C° 1.3 mm 2 mps 477 mmHg 79%
    17:00 +4°C° 1.3 mm 2 mps 477 mmHg 82%
    18:00 +3°C° 1.3 mm 2 mps 476 mmHg 84%
    19:00 +2°C° 1.3 mm 2 mps 476 mmHg 87%
    20:00 +2°C° 1.3 mm 2 mps 476 mmHg 90%
    21:00 +2°C° 0.2 mm 2 mps 476 mmHg 90%
    22:00 +1°C° 0.2 mm 2 mps 476 mmHg 89%
    23:00 +1°C° 0.2 mm 2 mps 476 mmHg 89%

    25 May, Saturday

    Time Temperature Precipitation Wind Pressure Humidity
    00:00 -1°C° 0.1 mm 2 mps 475 mmHg 89%
    01:00 +1°C° 0.1 mm 1 mps 475 mmHg 89%
    02:00 0°C° 0.1 mm 1 mps 474 mmHg 89%
    03:00 0°C° 0.2 mm 1 mps 474 mmHg 89%
    04:00 -2°C° 0.2 mm 2 mps 474 mmHg 88%
    05:00 -2°C° 0.2 mm 2 mps 474 mmHg 87%
    06:00 -2°C° 0.2 mm 2 mps 475 mmHg 87%
    07:00 -1°C° 0.2 mm 2 mps 475 mmHg 86%
    08:00 -1°C° 0.2 mm 3 mps 475 mmHg 85%
    09:00 -1°C° 0.4 mm 3 mps 475 mmHg 84%
    10:00 -1°C° 0.4 mm 3 mps 476 mmHg 84%
    11:00 0°C° 0.4 mm 3 mps 476 mmHg 84%
    12:00 0°C° 0.2 mm 3 mps 476 mmHg 81%
    13:00 +1°C° 0.2 mm 3 mps 476 mmHg 79%
    14:00 +1°C° 0.2 mm 3 mps 476 mmHg 76%
    15:00 +1°C° 0.1 mm 3 mps 476 mmHg 74%
    16:00 +1°C° 0.1 mm 3 mps 476 mmHg 71%
    17:00 0°C° 0.1 mm 4 mps 476 mmHg 69%
    18:00 0°C° 0.1 mm 3 mps 475 mmHg 72%
    19:00 -2°C° 0.1 mm 3 mps 475 mmHg 75%
    20:00 -4°C° 0.1 mm 3 mps 474 mmHg 77%
    21:00 -3°C° 0 mm 2 mps 474 mmHg 78%
    22:00 -4°C° 0 mm 2 mps 473 mmHg 79%
    23:00 -4°C° 0 mm 2 mps 473 mmHg 80%

    26 May, Sunday

    Time Temperature Precipitation Wind Pressure Humidity
    00:00 -4°C° 0.1 mm 2 mps 473 mmHg 79%
    01:00 -4°C° 0.1 mm 2 mps 473 mmHg 78%
    02:00 -4°C° 0.1 mm 2 mps 473 mmHg 77%
    03:00 -5°C° 0 mm 2 mps 473 mmHg 78%
    04:00 -5°C° 0 mm 2 mps 472 mmHg 79%
    05:00 -6°C° 0 mm 2 mps 472 mmHg 79%
    06:00 -5°C° 0 mm 2 mps 472 mmHg 76%
    07:00 -4°C° 0 mm 2 mps 473 mmHg 72%
    08:00 -3°C° 0 mm 2 mps 474 mmHg 68%
    09:00 -2°C° 0 mm 2 mps 474 mmHg 66%
    10:00 -1°C° 0 mm 2 mps 475 mmHg 64%
    11:00 -1°C° 0 mm 2 mps 475 mmHg 61%
    12:00 +1°C° 0.2 mm 2 mps 475 mmHg 61%
    13:00 0°C° 0.2 mm 3 mps 475 mmHg 62%
    14:00 +1°C° 0.2 mm 3 mps 475 mmHg 62%
    15:00 0°C° 0.3 mm 3 mps 475 mmHg 64%
    16:00 0°C° 0.3 mm 3 mps 475 mmHg 65%
    17:00 0°C° 0.3 mm 3 mps 475 mmHg 67%
    18:00 0°C° 0.2 mm 3 mps 475 mmHg 70%
    19:00 -1°C° 0.2 mm 3 mps 475 mmHg 73%
    20:00 -2°C° 0.2 mm 3 mps 475 mmHg 76%
    21:00 -2°C° 0.1 mm 2 mps 475 mmHg 76%
    22:00 -2°C° 0.1 mm 2 mps 475 mmHg 76%
    23:00 -3°C° 0.1 mm 2 mps 475 mmHg 76%
    Show more